カタログに戻る

DELTA 1 DEB

運用中LEO
NORAD 29186·DEBRIS·🇺🇸 United States

打ち上げ Jan 11, 1968 から Vandenberg Space Force Base

Loading…

次のパス (今後24時間)

TLE

経年Source: Space-Track

元期: Sep 10, 2026, 10:52 UTC

1 29186U 68002K   26253.45304721  .00000019  00000-0  28549-3 0  9997
2 29186 105.8024 112.9351 0310209  18.4632 101.0709 12.93094335 15169

AllMySatでDELTA 1 DEBをリアルタイム追跡

Download on the App Store